Weather in Boyarskaya

Russia / Republic of Karelia     65°57′50″N   33°21′00″E
temp.,
°C
wind,
m/s
gust,
m/s
humid.,
%
clouds,
%
prec.,
mm/h
press.,
hPa
HPBL,
m
1 march, mon
mon100:000wsw5129199 0.0 1005431
03:00+2wsw61410099 0.0 1003669
06:00+2w51490100 0.0 1001731
09:00+1w5148698 0.0 1001759
12:00+2w6148446 0.0 999860
15:00+1w5138023 0.0 998822
18:000w4128537 0.0 997593
21:00−2w5158367 0.0 995873
2 march, tue
tue200:00−1wnw8177867 0.0 9951248
03:00−2nw6148083 0.0 9971139
06:00−6nw6158174 0.0 998737
09:00−6nw6158137 0.0 1001791
12:00−4nw713792 0.0 1004975
15:00−4nw6127922 0.0 10061127
18:00−6wnw4138218 0.0 1007559
21:00−6wnw4138835 0.0 1007499
3 march, wed
wed300:00−7nw4119124 0.0 1007289
03:00−6nw3119258 0.0 1007362
06:00−9wnw3109032 0.0 1006226
09:00−9wnw389116 0.0 1006178
12:00−5w3792100 0.0 1004350
15:00−4wnw3593100 0.0 1002493
18:00−7wnw1197100 0.0 100021
21:00−6nne1297100 0.7 99942
4 march, thu
thu400:00−8nne2596100 0.3 999160
03:00−11nnw369598 0.3 999116
06:00−13nnw349564 0.0 100098
09:00−10nw499154 0.0 1000268
12:00−7nnw488961 0.0 1000555
15:00−8n359281 0.1 1001449
18:00−9nne229697 0.2 100265
21:00−13n129597 0.3 100321
5 march, fri
fri500:00−12nne129694 0.1 100423
03:00−13n229690 0.4 100622
06:00−13n239789 0.1 100850
09:00−14nw239793 0.2 100957
12:00−11nnw2492100 0.0 1011248
15:00−9nw248873 0.0 1012323
18:00−11w239139 0.0 101342
21:00−10wnw3109269 0.0 1013282